EW9318 Weather Reports


time (UTC)temp
C
wind
direction
speed
KPH
gust
KPH
rain 1hr
cm
rain 24hr
cm
rain mn
cm
humidity
%
barometer
mb
20260509192035 16 248 12.9 25.7 0.00 0.00 0.00 58 1002.2
20260509191515 16 258 16.1 24.1 0.00 0.00 0.00 58 1002.2
20260509191016 16 258 14.5 22.5 0.00 0.00 0.00 60 1002.3
20260509190515 15 251 12.9 20.9 0.00 0.00 0.00 63 1002.2
20260509190015 15 233 6.4 19.3 0.00 0.00 0.00 69 1002.3
20260509185536 15 250 11.3 19.3 0.00 0.00 0.00 67 1002.4
20260509185015 14 238 9.7 19.3 0.00 0.00 0.00 68 1002.3
20260509184515 14 253 11.3 19.3 0.00 0.00 0.00 68 1002.4
20260509184035 14 236 9.7 19.3 0.00 0.00 0.00 68 1002.4
20260509183515 13 238 12.9 19.3 0.00 0.00 0.00 68 1002.4
20260509183015 13 227 11.3 19.3 0.00 0.00 0.00 68 1002.4
20260509182515 13 238 9.7 19.3 0.00 0.00 0.00 68 1002.5
20260509182015 13 220 6.4 20.9 0.00 0.00 0.00 67 1002.3
20260509181535 13 237 12.9 20.9 0.00 0.00 0.00 66 1002.5
20260509181016 13 254 11.3 20.9 0.00 0.00 0.00 67 1002.7
20260509180515 13 251 14.5 24.1 0.00 0.00 0.00 67 1002.7
20260509180015 13 255 12.9 24.1 0.00 0.00 0.00 66 1002.7
20260509175515 13 258 9.7 22.5 0.00 0.00 0.00 65 1002.4
20260509175016 13 255 12.9 27.4 0.00 0.00 0.00 66 1002.3
20260509174537 13 268 12.9 27.4 0.00 0.00 0.00 64 1002.7
20260509174018 13 290 14.5 24.1 0.00 0.00 0.00 63 1002.6
20260509173517 13 291 11.3 24.1 0.00 0.00 0.00 63 1002.7
20260509173037 13 297 11.3 19.3 0.00 0.00 0.00 63 1002.4
20260509172517 13 306 6.4 20.9 0.00 0.00 0.00 63 1002.3
20260509172017 13 303 12.9 20.9 0.00 0.00 0.00 65 1002.4
20260509171517 13 300 11.3 17.7 0.00 0.00 0.00 64 1002.3
20260509171017 13 308 11.3 22.5 0.00 0.00 0.00 64 1002.3
20260509170517 14 301 14.5 22.5 0.00 0.00 0.00 67 1002.5
20260509170018 14 300 12.9 25.7 0.00 0.00 0.00 67 1002.7
20260509165517 14 271 16.1 27.4 0.00 0.00 0.00 68 1002.7
20260509165017 14 291 17.7 38.6 0.00 0.00 0.00 68 1002.6
20260509164539 14 268 24.1 38.6 0.00 0.00 0.00 67 1002.6
20260509164017 14 267 19.3 32.2 0.00 0.00 0.00 68 1002.6
20260509163536 14 279 16.1 32.2 0.00 0.00 0.00 68 1002.4
20260509163017 14 279 20.9 32.2 0.00 0.00 0.00 67 1002.4
20260509162517 14 273 19.3 32.2 0.00 0.00 0.00 67 1002.3
20260509162018 15 275 20.9 32.2 0.00 0.00 0.00 65 1002.2
20260509161619 15 277 17.7 25.7 0.00 0.00 0.00 65 1002.0
20260509161017 15 260 17.7 29.0 0.00 0.00 0.00 66 1002.0
20260509160517 15 257 17.7 37.0 0.00 0.00 0.00 66 1002.0
20260509160018 15 254 24.1 37.0 0.00 0.00 0.00 66 1001.8
20260509155517 15 252 22.5 38.6 0.00 0.00 0.00 65 1001.6
20260509155017 15 259 24.1 38.6 0.00 0.00 0.00 65 1001.6
20260509154517 15 276 20.9 35.4 0.00 0.00 0.00 63 1001.5
20260509154017 15 267 17.7 37.0 0.00 0.00 0.00 63 1001.5
20260509153537 15 246 22.5 37.0 0.00 0.00 0.00 64 1001.2
20260509153017 16 258 20.9 33.8 0.00 0.00 0.00 63 1001.2
20260509152518 16 258 19.3 32.2 0.00 0.00 0.00 65 1001.0
20260509152017 16 260 17.7 33.8 0.00 0.00 0.00 63 1001.0
20260509151517 16 267 19.3 37.0 0.00 0.00 0.00 65 1001.0
20260509151017 15 266 22.5 37.0 0.00 0.00 0.00 63 1001.0
20260509150537 16 269 22.5 35.4 0.00 0.00 0.00 66 1001.2
20260509150038 15 257 24.1 46.7 0.00 0.00 0.00 66 1001.1
20260509145517 15 257 29.0 46.7 0.00 0.00 0.00 65 1001.1
20260509145018 15 255 25.7 38.6 0.00 0.00 0.00 66 1000.9
20260509144518 15 239 22.5 37.0 0.00 0.00 0.00 65 1000.9
20260509144017 16 230 22.5 37.0 0.00 0.00 0.00 64 1000.8
20260509143516 16 237 19.3 37.0 0.00 0.00 0.00 65 1000.8
20260509143017 16 239 20.9 37.0 0.00 0.00 0.00 65 1001.0
20260509142517 16 261 19.3 40.2 0.00 0.00 0.00 65 1001.0
20260509142017 15 242 20.9 40.2 0.00 0.00 0.00 66 1001.1
20260509141537 15 254 24.1 33.8 0.00 0.00 0.00 66 1001.0
20260509141017 15 254 22.5 33.8 0.00 0.00 0.00 68 1001.0
20260509140536 15 233 19.3 35.4 0.00 0.00 0.00 67 1001.0
20260509140016 15 232 20.9 35.4 0.00 0.00 0.00 67 1001.0
20260509135516 15 244 22.5 35.4 0.00 0.00 0.00 68 1001.0
20260509135016 15 247 24.1 38.6 0.00 0.00 0.00 67 1001.1
20260509134516 15 241 22.5 38.6 0.00 0.00 0.00 67 1001.0
20260509134018 14 236 17.7 29.0 0.00 0.00 0.00 68 1001.0
20260509133538 14 235 16.1 29.0 0.00 0.00 0.00 70 1000.9
20260509133016 13 224 12.9 29.0 0.00 0.00 0.00 73 1001.0
20260509132516 13 234 12.9 25.7 0.00 0.00 0.00 74 1001.1
20260509132017 13 224 14.5 25.7 0.00 0.00 0.00 75 1001.1
20260509131518 13 211 12.9 24.1 0.00 0.00 0.00 75 1001.3
20260509131016 12 244 14.5 25.7 0.00 0.00 0.00 76 1001.5
20260509130517 12 235 16.1 25.7 0.00 0.00 0.00 76 1001.4
20260509130016 12 232 17.7 33.8 0.00 0.00 0.00 78 1001.2
20260509125556 12 211 14.5 33.8 0.00 0.00 0.00 80 1001.1
20260509125016 12 211 14.5 25.7 0.00 0.00 0.00 81 1001.1
20260509124557 12 190 11.3 27.4 0.00 0.00 0.00 82 1001.2
20260509124016 12 210 14.5 27.4 0.00 0.00 0.00 82 1001.1
20260509123516 12 189 12.9 25.7 0.00 0.00 0.00 83 1001.4
20260509123036 11 178 11.3 27.4 0.00 0.00 0.00 84 1001.4
20260509122516 11 184 12.9 27.4 0.00 0.00 0.00 85 1001.5
20260509122017 11 192 11.3 22.5 0.00 0.00 0.00 86 1001.6
20260509121516 11 204 11.3 22.5 0.00 0.00 0.00 87 1001.6
20260509121037 11 195 9.7 22.5 0.00 0.00 0.00 88 1001.7
20260509120516 10 179 9.7 20.9 0.00 0.00 0.00 88 1001.7
20260509120017 10 187 9.7 20.9 0.00 0.00 0.00 88 1001.7
20260509115517 10 194 9.7 20.9 0.00 0.00 0.00 88 1001.7
20260509115056 10 189 9.7 19.3 0.00 0.00 0.00 89 1001.7
20260509114516 10 185 9.7 19.3 0.00 0.00 0.00 89 1001.8
20260509114016 10 186 6.4 14.5 0.00 0.00 0.00 89 1001.8
20260509113516 10 189 6.4 14.5 0.00 0.00 0.00 89 1001.9
20260509113016 10 196 6.4 16.1 0.00 0.00 0.00 89 1002.0
20260509112516 10 201 6.4 20.9 0.00 0.00 0.00 89 1002.0
20260509112017 10 191 9.7 29.0 0.00 0.00 0.00 89 1001.9
20260509111516 10 197 11.3 29.0 0.00 0.00 0.00 89 1002.1
20260509111036 10 203 12.9 27.4 0.00 0.00 0.00 90 1002.0
20260509110516 10 183 9.7 27.4 0.00 0.00 0.00 90 1001.9
20260509110016 10 200 8.0 19.3 0.00 0.00 0.00 90 1001.8
20260509105516 9 190 8.0 20.9 0.00 0.00 0.00 90 1001.9
20260509105017 9 179 9.7 20.9 0.00 0.00 0.00 90 1001.9
20260509104517 9 174 8.0 19.3 0.00 0.00 0.00 90 1001.8
20260509104016 9 168 8.0 19.3 0.00 0.00 0.00 90 1001.9
20260509103516 9 176 8.0 17.7 0.00 0.00 0.00 90 1002.0
20260509103017 9 181 8.0 17.7 0.00 0.00 0.00 90 1002.1
20260509102536 9 193 6.4 12.9 0.00 0.00 0.00 90 1002.1
20260509102016 9 181 6.4 12.9 0.00 0.00 0.00 90 1002.2
20260509101537 9 184 6.4 14.5 0.00 0.00 0.00 90 1002.2
20260509101016 9 173 6.4 14.5 0.00 0.00 0.00 90 1002.1
20260509100516 9 189 4.8 16.1 0.00 0.00 0.00 90 1002.2
20260509100017 9 182 6.4 16.1 0.00 0.00 0.00 90 1002.3
20260509095517 9 179 8.0 14.5 0.00 0.00 0.00 90 1002.3
20260509095017 9 176 6.4 12.9 0.00 0.00 0.00 90 1002.3
20260509094516 9 177 6.4 11.3 0.00 0.00 0.00 90 1002.4
20260509094016 9 174 4.8 11.3 0.00 0.00 0.00 89 1002.5
20260509093517 9 178 4.8 9.7 0.00 0.00 0.00 89 1002.5
20260509093016 9 192 1.6 9.7 0.00 0.00 0.00 89 1002.5
20260509092516 9 172 3.2 9.7 0.00 0.00 0.00 89 1002.5
20260509092036 9 166 3.2 14.5 0.00 0.00 0.00 89 1002.5
20260509091516 9 168 6.4 14.5 0.00 0.00 0.00 89 1002.4
20260509091016 9 165 4.8 11.3 0.00 0.00 0.00 89 1002.6
20260509090517 9 172 3.2 11.3 0.00 0.00 0.00 89 1002.6
20260509090017 9 173 4.8 9.7 0.00 0.00 0.00 89 1002.7
20260509085556 9 159 3.2 11.3 0.00 0.00 0.00 89 1002.6
20260509085016 9 166 4.8 11.3 0.00 0.00 0.00 89 1002.7
20260509084516 9 171 4.8 14.5 0.00 0.00 0.00 89 1002.7
20260509084016 9 173 4.8 14.5 0.00 0.00 0.00 89 1002.8
20260509083516 8 161 4.8 16.1 0.00 0.00 0.00 89 1002.8
20260509083016 8 157 4.8 16.1 0.00 0.00 0.00 89 1002.8
20260509082516 8 166 3.2 11.3 0.00 0.00 0.00 89 1002.8
20260509082016 8 171 3.2 9.7 0.00 0.00 0.00 88 1002.9
20260509081516 8 161 3.2 9.7 0.00 0.00 0.00 88 1002.9
20260509081016 8 154 3.2 12.9 0.00 0.00 0.00 88 1003.0
20260509080516 8 153 3.2 12.9 0.00 0.00 0.00 88 1003.1
20260509080016 8 150 3.2 8.0 0.00 0.00 0.00 88 1003.1
20260509075516 8 159 3.2 9.7 0.00 0.00 0.00 88 1003.2
20260509075016 8 160 3.2 11.3 0.00 0.00 0.00 88 1003.2
20260509074517 8 168 3.2 11.3 0.00 0.00 0.00 88 1003.3
20260509074016 8 149 4.8 9.7 0.00 0.00 0.00 88 1003.3
20260509073516 8 143 3.2 9.7 0.00 0.00 0.00 87 1003.3
20260509073016 8 155 3.2 9.7 0.00 0.00 0.00 86 1003.4
20260509072516 8 168 1.6 6.4 0.00 0.00 0.00 85 1003.5
20260509072016 8 159 1.6 6.4 0.00 0.00 0.00 85 1003.6
20260509071516 8 147 1.6 6.4 0.00 0.00 0.00 85 1003.6
20260509071016 8 154 1.6 6.4 0.00 0.00 0.00 85 1003.6
20260509070517 8 193 0.0 6.4 0.00 0.00 0.00 84 1003.7
20260509070015 8 157 0.0 6.4 0.00 0.00 0.00 83 1003.7
20260509065516 8 143 1.6 8.0 0.00 0.00 0.00 83 1003.6
20260509065016 7 141 3.2 8.0 0.00 0.00 0.00 81 1003.6
20260509064516 7 154 0.0 4.8 0.00 0.00 0.00 79 1003.8
20260509064016 7 157 0.0 6.4 0.00 0.00 0.00 78 1003.9
20260509063536 7 148 0.0 6.4 0.00 0.00 0.00 78 1003.9
20260509063036 7 142 1.6 4.8 0.00 0.00 0.00 76 1003.9
20260509062536 7 140 1.6 8.0 0.00 0.00 0.00 77 1004.0
20260509062016 7 139 3.2 8.0 0.00 0.00 0.00 75 1004.0
20260509061515 7 132 3.2 8.0 0.00 0.00 0.00 74 1004.0
20260509061016 7 127 3.2 8.0 0.00 0.00 0.00 73 1004.0
20260509060515 7 135 3.2 6.4 0.00 0.00 0.00 73 1004.0
20260509060015 7 132 3.2 6.4 0.00 0.00 0.00 72 1004.2
20260509055516 6 149 3.2 6.4 0.00 0.00 0.00 71 1004.2
20260509055035 6 144 1.6 4.8 0.00 0.00 0.00 71 1004.2
20260509054516 6 180 0.0 3.2 0.00 0.00 0.00 71 1004.3
20260509054015 6 178 0.0 8.0 0.00 0.00 0.00 71 1004.4
20260509053516 6 175 3.2 8.0 0.00 0.00 0.00 71 1004.3
20260509053017 6 157 1.6 8.0 0.00 0.00 0.00 71 1004.3
20260509052517 5 144 1.6 6.4 0.00 0.00 0.00 71 1004.2
20260509052016 5 126 3.2 6.4 0.00 0.00 0.00 72 1004.2
20260509051515 5 120 3.2 6.4 0.00 0.00 0.00 75 1004.1
20260509051016 5 121 3.2 4.8 0.00 0.00 0.00 75 1004.2
20260509050537 5 125 3.2 4.8 0.00 0.00 0.00 74 1004.3
20260509050016 5 130 0.0 3.2 0.00 0.00 0.00 72 1004.3
20260509045517 5 0.0 1.6 0.00 0.00 0.00 72 1004.3
20260509045035 5 130 0.0 4.8 0.00 0.00 0.00 71 1004.3
20260509044515 6 132 0.0 6.4 0.00 0.00 0.00 71 1004.3
20260509044015 5 116 3.2 6.4 0.00 0.00 0.00 70 1004.2
20260509043537 5 119 3.2 6.4 0.00 0.00 0.00 70 1004.3
20260509043015 5 130 1.6 4.8 0.00 0.00 0.00 69 1004.4
20260509042515 6 129 1.6 3.2 0.00 0.00 0.00 68 1004.5
20260509042015 6 120 1.6 4.8 0.00 0.00 0.00 68 1004.5
20260509041536 6 117 1.6 4.8 0.00 0.00 0.00 68 1004.5
20260509041015 6 114 1.6 4.8 0.00 0.00 0.00 67 1004.6
20260509040515 6 112 1.6 4.8 0.00 0.00 0.00 67 1004.6
20260509040015 6 113 3.2 4.8 0.00 0.00 0.00 66 1004.6
20260509035536 6 119 3.2 4.8 0.00 0.00 0.00 66 1004.6
20260509035016 6 122 1.6 4.8 0.00 0.00 0.00 66 1004.7
20260509034517 6 122 1.6 4.8 0.00 0.00 0.00 64 1004.7
20260509034016 6 122 1.6 4.8 0.00 0.00 0.00 64 1004.8
20260509033517 6 122 1.6 4.8 0.00 0.00 0.00 64 1004.7
20260509033016 6 122 3.2 4.8 0.00 0.00 0.00 64 1004.8
20260509032516 6 122 3.2 4.8 0.00 0.00 0.00 63 1004.8
20260509032016 7 125 3.2 4.8 0.00 0.00 0.00 63 1004.8
20260509031515 7 125 3.2 4.8 0.00 0.00 0.00 63 1004.9
20260509031017 7 126 1.6 4.8 0.00 0.00 0.00 61 1005.0
20260509030536 7 125 0.0 3.2 0.00 0.00 0.00 58 1005.1
20260509030016 7 126 0.0 1.6 0.00 0.00 0.00 58 1005.2
20260509025516 7 126 0.0 1.6 0.00 0.00 0.00 58 1005.2
20260509025016 7 125 0.0 3.2 0.00 0.00 0.00 59 1005.2
20260509024517 7 125 1.6 3.2 0.00 0.00 0.00 59 1005.2
20260509024016 7 125 1.6 4.8 0.00 0.00 0.00 58 1005.2
20260509023516 8 125 3.2 6.4 0.00 0.00 0.00 57 1005.2
20260509023016 8 127 3.2 6.4 0.00 0.00 0.00 57 1005.3
20260509022516 8 131 3.2 6.4 0.00 0.00 0.00 56 1005.3
20260509022015 8 130 3.2 6.4 0.00 0.00 0.00 55 1005.3
20260509021536 8 131 1.6 4.8 0.00 0.00 0.00 52 1005.4
20260509021016 8 132 3.2 4.8 0.00 0.00 0.00 52 1005.4
20260509020516 9 137 3.2 4.8 0.00 0.00 0.00 53 1005.4
20260509020015 9 138 3.2 4.8 0.00 0.00 0.00 51 1005.3
20260509015517 9 138 1.6 3.2 0.00 0.00 0.00 50 1005.3
20260509015015 10 137 0.0 3.2 0.00 0.00 0.00 49 1005.3
20260509014517 10 138 1.6 4.8 0.00 0.00 0.00 49 1005.3
20260509014015 10 138 1.6 4.8 0.00 0.00 0.00 49 1005.2
20260509013517 10 138 1.6 3.2 0.00 0.00 0.00 47 1005.2
20260509013016 11 138 1.6 4.8 0.00 0.00 0.00 46 1005.1
20260509012516 11 137 3.2 4.8 0.00 0.00 0.00 42 1005.2
20260509012016 11 137 3.2 4.8 0.00 0.00 0.00 44 1005.1
20260509011535 11 237 1.6 4.8 0.00 0.00 0.00 43 1005.1
20260509011015 12 266 1.6 4.8 0.00 0.00 0.00 40 1005.1
20260509010515 12 266 1.6 4.8 0.00 0.00 0.00 39 1005.1
20260509010016 13 266 1.6 3.2 0.00 0.00 0.00 37 1005.2
20260509005516 13 266 1.6 3.2 0.00 0.00 0.00 35 1005.1
20260509005015 13 266 1.6 3.2 0.00 0.00 0.00 33 1005.1
20260509004517 14 266 1.6 3.2 0.00 0.00 0.00 32 1005.1
20260509004017 14 266 0.0 3.2 0.00 0.00 0.00 31 1005.1
20260509003515 15 0.0 3.2 0.00 0.00 0.00 33 1005.1
20260509003015 15 277 0.0 3.2 0.00 0.00 0.00 33 1005.1
20260509002515 15 306 0.0 4.8 0.00 0.00 0.00 30 1005.1
20260509002015 15 304 1.6 9.7 0.00 0.00 0.00 26 1005.2
20260509001515 15 264 3.2 9.7 0.00 0.00 0.00 25 1005.1
20260509001015 15 262 1.6 6.4 0.00 0.00 0.00 25 1005.2
20260509000515 15 266 3.2 9.7 0.00 0.00 0.00 26 1005.2
20260509000015 15 296 4.8 11.3 0.00 0.00 0.00 25 1005.2
20260508235516 15 294 6.4 12.9 0.00 0.00 0.00 24 1005.2
20260508235015 15 300 6.4 12.9 0.00 0.00 0.00 24 1005.3
20260508234515 15 299 6.4 16.1 0.00 0.00 0.00 24 1005.4
20260508234036 15 301 11.3 17.7 0.00 0.00 0.00 24 1005.5
20260508233515 15 309 9.7 17.7 0.00 0.00 0.00 24 1005.5
20260508233036 16 297 9.7 16.1 0.00 0.00 0.00 24 1005.5
20260508232537 16 295 8.0 19.3 0.00 0.00 0.00 24 1005.5
20260508232015 16 303 12.9 19.3 0.00 0.00 0.00 23 1005.4
20260508231535 16 299 11.3 19.3 0.00 0.00 0.00 24 1005.5
20260508231015 16 308 11.3 20.9 0.00 0.00 0.00 24 1005.4
20260508230515 16 299 12.9 20.9 0.00 0.00 0.00 23 1005.4
20260508230015 16 312 12.9 25.7 0.00 0.00 0.00 24 1005.5
20260508225515 16 316 12.9 25.7 0.00 0.00 0.00 22 1005.5
20260508225015 16 299 11.3 17.7 0.00 0.00 0.00 23 1005.4
20260508224515 16 313 11.3 22.5 0.00 0.00 0.00 22 1005.4
20260508224015 16 307 14.5 22.5 0.00 0.00 0.00 23 1005.5
20260508223515 16 287 12.9 22.5 0.00 0.00 0.00 21 1005.5
20260508223015 16 306 11.3 22.5 0.00 0.00 0.00 21 1005.5
20260508222516 16 310 14.5 22.5 0.00 0.00 0.00 22 1005.5
20260508222015 16 298 11.3 25.7 0.00 0.00 0.00 21 1005.6
20260508221515 16 321 16.1 25.7 0.00 0.00 0.00 22 1005.6
20260508221015 16 319 16.1 25.7 0.00 0.00 0.00 21 1005.6
20260508220516 16 303 14.5 22.5 0.00 0.00 0.00 23 1005.7
20260508220015 16 298 12.9 24.1 0.00 0.00 0.00 22 1005.6
20260508215516 16 304 14.5 24.1 0.00 0.00 0.00 21 1005.6
20260508215015 16 303 12.9 24.1 0.00 0.00 0.00 23 1005.7
20260508214515 16 301 16.1 25.7 0.00 0.00 0.00 23 1005.6
20260508214015 16 301 14.5 25.7 0.00 0.00 0.00 22 1005.6
20260508213515 16 324 14.5 22.5 0.00 0.00 0.00 24 1005.6
20260508213016 16 327 16.1 24.1 0.00 0.00 0.00 24 1005.6
20260508212516 16 298 12.9 29.0 0.00 0.00 0.00 21 1005.6
20260508212015 16 304 16.1 29.0 0.00 0.00 0.00 22 1005.8
20260508211515 16 303 17.7 27.4 0.00 0.00 0.00 23 1005.8
20260508211015 16 297 16.1 27.4 0.00 0.00 0.00 23 1005.8
20260508210515 16 263 12.9 25.7 0.00 0.00 0.00 24 1005.8
20260508210015 16 272 17.7 25.7 0.00 0.00 0.00 22 1005.8
20260508205515 16 274 11.3 24.1 0.00 0.00 0.00 23 1005.9
20260508205015 16 263 14.5 24.1 0.00 0.00 0.00 23 1005.9
20260508204516 16 247 16.1 25.7 0.00 0.00 0.00 24 1005.9
20260508204015 16 295 12.9 27.4 0.00 0.00 0.00 23 1006.1
20260508203515 16 288 17.7 27.4 0.00 0.00 0.00 23 1006.2
20260508203015 16 252 16.1 25.7 0.00 0.00 0.00 23 1006.3
20260508202515 16 240 16.1 29.0 0.00 0.00 0.00 23 1006.2
20260508202015 16 274 19.3 29.0 0.00 0.00 0.00 22 1006.4
20260508201515 16 257 14.5 27.4 0.00 0.00 0.00 25 1006.4
20260508201015 16 262 17.7 27.4 0.00 0.00 0.00 21 1006.5
20260508200538 16 270 17.7 27.4 0.00 0.00 0.00 24 1006.6
20260508200037 16 268 17.7 27.4 0.00 0.00 0.00 23 1006.6
20260508195517 16 271 14.5 24.1 0.00 0.00 0.00 25 1006.6
20260508195017 16 245 16.1 29.0 0.00 0.00 0.00 27 1006.7
20260508194517 16 250 16.1 30.6 0.00 0.00 0.00 24 1006.7
20260508194017 16 243 17.7 30.6 0.00 0.00 0.00 25 1006.8
20260508193518 16 230 17.7 27.4 0.00 0.00 0.00 25 1006.8
20260508193018 16 248 14.5 27.4 0.00 0.00 0.00 24 1006.8
20260508192517 16 269 14.5 27.4 0.00 0.00 0.00 25 1006.8